sat.trackr.live / text

‹ back to catalog

CINEMA

NORAD 38764 · 2012-048G

PAYLOAD ACTIVE UNKNOWN

§ Identity

Operator
Country
US
Launch date
2012-09-13
Launch site
AFWTR
Launch vehicle
Mass (kg)
RCS (m²)

External: N2YO · Heavens-Above · Gunter

§ Orbital elements

Epoch: 2026-09-19T08:07:01.227360Z

Period
92.66 min
Inclination
64.6395°
Eccentricity
0.0024049
Mean motion
15.54085697 rev/d
Perigee alt
388.5 km
Apogee alt
421.1 km
Semi-major
6,782.9 km
B*
4.5404e-4
RAAN
122.9305°
Arg perigee
144.1541°
Mean anomaly
216.1221°
Rev number
13,184

§ Raw data

CINEMA1 38764U 12048G   26262.33820865  .00029843  00000+0  45404-3 0  99912 38764  64.6395 122.9305 0024049 144.1541 216.1221 15.54085697131846

JSON: /api/v1/satellites/38764 · /tle

For live sub-satellite position, see the globe view (requires WebGL).

§ Visibility from observer

Set your observer location to see the next 7 days of passes ≥ 10°. The values pass through the URL so the page stays shareable.

No JS? Fill the form by hand. The geolocation button needs JavaScript.